Погода в Краснополье

Россия / Волгоградская область     50°29′58″N   41°27′56″E
темп.,
°C
ветер,
м/с
пор.,
м/с
влажн.,
%
обл.,
%
осадки,
мм/ч
давл.,
гПа
погр.,
м
7 мая, пт
пт700:00+14ю51261100 0.0 1012349
03:00+11ююв41072100 0.0 1011201
06:00+12ююз41073100 0.0 1011329
09:00+13зсз3481100 0.9 1013471
12:00+12ссз5787100 2.9 1014368
15:00+14ссз557185 3.4 10151055
18:00+12ссз5759100 0.1 1016295
21:00+8св22745 0.1 101811
8 мая, сб
сб800:00+7вюв358515 0.0 101777
03:00+6юв22885 0.0 101811
06:00+8вюв3582100 0.0 1017124
09:00+12ююв5660100 0.0 1016508
12:00+17ю6854100 0.0 10141179
15:00+19ююз7952100 0.0 10111771
18:00+17ю61167100 0.0 1010526
21:00+14ю41184100 0.4 1010238
9 мая, вс
вс900:00+11з3596100 0.1 1010121
03:00+9сз6986100 0.0 1013517
06:00+9ссз51086100 0.0 1012468
09:00+8с51093100 3.1 1013624
12:00+7ссз71090100 7.4 1015821
15:00+7с71291100 13.0 1016975
18:00+6с81391100 2.2 1018995
21:00+6с101791100 2.9 1018871
10 мая, пн
пн1000:00+6ссв101792100 2.3 1018837
03:00+6ссв101893100 3.4 1018701
06:00+6ссв112094100 4.9 1019630
09:00+6ссв111893100 7.4 1020636
12:00+8ссв101792100 0.7 1021564
15:00+12ссв111885100 0.7 1020625
18:00+13ссв111884100 0.0 1020668
21:00+10св9197395 0.0 1024714
11 мая, вт
вт1100:00+10св9178898 0.1 1021503
03:00+9св71690100 0.6 1021463
06:00+9св91792100 1.4 1021509
09:00+11всв71493100 3.5 1023635
12:00+12вюв478974 0.2 1023523
15:00+13в3585100 0.4 1023491
18:00+12с3498100 5.1 1023114
21:00+13в71494100 6.8 1021729